Orbital Elements at Epoch 2459200.5 (2020-Dec-17.0) TDB
Reference: JPL 16 (heliocentric ecliptic J2000)
Element | Value | Uncertainty (1-sigma) | Units |
e | .1014955338386512 | 4.2298e-08 | |
a | 2.163414205345525 | 9.841e-09 | au |
q | 1.943837325659859 | 8.8501e-08 | au |
i | 4.923650236881069 | 3.6177e-06 | deg |
node | 40.12617830935083 | 7.1418e-05 | deg |
peri | 30.07201360913062 | 7.7124e-05 | deg |
M | 242.5243709622058 | 3.0782e-05 | deg |
tp | 2459579.774130016875 (2021-Dec-31.27413002) | 0.00010051 | TDB |
period | 1162.272446842125 3.18 | 7.9305e-06 2.171e-08 | d yr |
n | .309738048921416 | 2.1134e-09 | deg/d |
Q | 2.38299108503119 | 1.084e-08 | au |
|
| | Orbit Determination Parameters
Additional Information
|